Simultaneous Nadir Overpasses (SNOs) Predictions

Prediction of SNOs between AQUA and METOP-C Satellite Orbit:

Table of predicted SNOs for the next 14.0 days since TLE Epoch: 12/5/2020
Index Date (AQUA) Time (AQUA) Lat,Lon (AQUA) SZA (AQUA ) Date (METOP-C) Time (METOP-C) Lat,Lon (METOP-C) SZA (METOP-C ) Distance(km) Time Diff (sec)
1 12/06/2020 14:22:43 -73.66, 138.88 83.83 12/06/2020 14:21:44 -73.65, 138.81 83.83 1.98 59
2 12/06/2020 15:12:13 73.76, -53.72 96.29 12/06/2020 15:12:23 73.74, -53.66 96.26 3.38 10
3 12/06/2020 16:01:46 -74.17, 113.01 83.29 12/06/2020 16:02:55 -74.18, 114.74 83.31 52.71 69
4 12/09/2020 09:56:57 -73.66,-154.69 83.53 12/09/2020 09:56:06 -73.69,-154.70 83.50 2.96 51
5 12/09/2020 10:46:26 73.72, 12.82 96.54 12/09/2020 10:46:46 73.72, 12.71 96.54 3.41 20
6 12/12/2020 05:31:12 -73.68, -88.29 83.28 12/12/2020 05:30:30 -73.67, -88.33 83.28 1.46 42
7 12/12/2020 06:20:41 73.74, 79.22 96.79 12/12/2020 06:21:09 73.75, 79.19 96.81 1.85 28
8 12/15/2020 01:05:27 -73.70, -21.91 83.07 12/15/2020 01:04:53 -73.70, -21.85 83.07 1.65 34
9 12/15/2020 01:54:56 73.77, 145.59 97.00 12/15/2020 01:55:32 73.78, 145.66 97.01 2.59 36
10 12/17/2020 20:39:41 -73.69, 44.57 82.97 12/17/2020 20:39:17 -73.68, 44.50 82.98 2.38 24
11 12/17/2020 21:29:10 73.76,-147.95 97.11 12/17/2020 21:29:56 73.75,-147.99 97.10 1.45 46



Historial Predications of SNOs between AQUA and METOP-C
